Regional Weather Roundup
Issued by NWS Upton, NY

Current Version | Previous Version | Graphics & Text | Print | Product List | Glossary Off
Versions: 1 2 3 4 5 6 7 8 9 10 11 12 13 14 15 16 17 18 19 20 21 22 23 24 25 26 27 28 29 30 31 32 33 34 35 36 37 38 39 40 41 42 43 44 45 46 47 48 49 50

001
ASUS41 KOKX 272108
RWROKX

REGIONAL WEATHER ROUNDUP
NATIONAL WEATHER SERVICE NEW YORK NY
400 PM EST MON FEB 27 2017

NOTE: "FAIR" INDICATES FEW OR NO CLOUDS BELOW 12,000 FEET WITH NO
SIGNIFICANT WEATHER AND/OR OBSTRUCTIONS TO VISIBILITY.

NYZ071-072-176-178-NJZ106-104-272200-
NEW YORK CITY METRO AREA

CITY           SKY/WX    TMP DP  RH WIND       PRES   REMARKS
Central Park   CLOUDY    53  20  27 SW8       30.37S
Wall St Helipt CLOUDY    52  25  35 W10       30.37S
LaGuardia APRT CLOUDY    52  32  46 S10       30.35S
Kennedy INTL   CLOUDY    46  38  73 S20       30.38S
Breezy Point     N/A     45 N/A N/A S14         N/A
Newark/Liberty CLOUDY    54  21  27 SW10      30.35F
Teterboro      CLOUDY    54  21  27 SW10      30.34S
$$

NYZ177-179-078>081-272200-
LONG ISLAND NEW YORK

CITY           SKY/WX    TMP DP  RH WIND       PRES   REMARKS
Jones Beach      N/A     45 N/A N/A S14G21      N/A
Matinecock PT    N/A     50 N/A N/A S10G17      N/A
Farmingdale    CLOUDY    46  34  62 SW18      30.38S
MacArthur/ISP  CLOUDY    46  34  62 SW13G26   30.38R
Shirley        MOSUNNY   45  35  68 SW15G23   30.39S
Westhampton    CLOUDY    45  34  65 SW12G22   30.40S
Southampton      N/A     45  39  81 SW13      30.37R
Bridgehampton  NOT AVBL
East Hampton     N/A     44  35  70 SW12G21   30.39R
Montauk          N/A     45  35  68 SW14G21   30.39S
$$

NYZ052-065-067-272200-
HUDSON VALLEY

CITY           SKY/WX    TMP DP  RH WIND       PRES   REMARKS
White Plains   MOSUNNY   49  26  41 S12G18    30.33S
Newburgh       MOSUNNY   50  21  32 SW15G23   30.32S
Montgomery     SUNNY     51  24  34 SW21      30.29S
Poughkeepsie   SUNNY     52  18  26 SW17      30.30F
Albany         MOSUNNY   53  19  26 W15G22    30.25S
$$

NJZ001-105-106-008-010-013-015-019>022-104-272200-
NEW JERSEY

CITY           SKY/WX    TMP DP  RH WIND       PRES   REMARKS
Newark/Liberty CLOUDY    54  21  27 SW10      30.35F
Teterboro      CLOUDY    54  21  27 SW10      30.34S
Caldwell       CLOUDY    53  20  27 VRB6      30.35S
Somerville     CLOUDY    54  22  28 S7        30.34S
Linden         NOT AVBL
Sussex         MOSUNNY   50  24  36 SW13G20   30.32F
Andover          N/A     50  23  34 SW12G20   30.33F
Trenton        CLOUDY    53  27  36 SW7       30.37R
Millville      CLOUDY    51  36  56 VRB3      30.40R
Atlantic City  CLOUDY    50  35  56 S12       30.41R
Wrightstown    CLOUDY    53  26  34 W14       30.36R
Toms River     CLOUDY    51  34  52 S9        30.40R
Belmar         CLOUDY    51  35  54 S10       30.38S
$$

PAZ047>061-062-071-272200-
EASTERN PENNSYLVANIA

CITY           SKY/WX    TMP DP  RH WIND       PRES   REMARKS
Philadelphia   CLOUDY    54  29  38 SW9       30.39R
Allentown      CLOUDY    52  27  38 SW13      30.36R
Scranton       CLOUDY    50  23  34 SW13G23   30.30R
$$

CTZ002-004>006-009-010-012-RIZ004-006-007-MAZ004-011-015-272200-
SOUTHERN NEW ENGLAND
 IN CT

CITY           SKY/WX    TMP DP  RH WIND       PRES   REMARKS
Bradley INTL   MOSUNNY   54  16  22 SW10G20   30.29R
Hartford       SUNNY     53  19  26 S20G25    30.30F
Danbury        MOSUNNY   50  19  29 SW17G25   30.33S
Wtrbury/Oxford MOSUNNY   50  18  27 SW8G18    30.32S
Bridgeport     CLOUDY    49  31  49 S15       30.35S
Meriden        MOSUNNY   52  19  27 S13G22    30.33R
New Haven      CLOUDY    46  31  55 SW12      30.35S
Chester          N/A     46  25  42 SW9G18    30.34S
Groton         CLOUDY    45  33  63 SW18      30.36R
Wilimantic     SUNNY     51  20  29 SW10G22   30.32R

 IN RI

CITY           SKY/WX    TMP DP  RH WIND       PRES   REMARKS
Providence     PTSUNNY   48  24  39 SW17G29   30.33R
Block Island   PTSUNNY   44  37  76 SW17G25   30.38R
Westerly       CLOUDY    47  29  49 SW14G21   30.37R
 IN MA

CITY           SKY/WX    TMP DP  RH WIND       PRES   REMARKS
Boston         MOSUNNY   53  16  23 SW23G33   30.26S
Worcester      SUNNY     49  15  25 SW20G32   30.25R
Westfield      SUNNY     53  18  25 SW16G24   30.28R
Provincetown   CLOUDY    44  34  67 SW25G31   30.30S
Nantucket      SUNNY     44  35  70 SW20      30.38S
$$

ANZ330-335-338-340-345-350-353-355-272200-
COASTAL MARINE OBSERVATIONS


STATION/POSITION TIME  SKY/WX   TEMP    WIND        PRES    VSBY  WAVE
                                AIR SEA DIR/SP/G                  HT/PER
                 (UTC)          (F)     (DEG/KT/KT) (MB)    (MI)  (FT/S)
NY HARB ENTRANCE NOT AVBL
20 S FIRE ISLAND 1950            44 43  210/ 17/ 19 1029.3          4/ 5
GREAT SOUTH BAY  NOT AVBL
23 SSW MONTAUK P 1950            45 46              1029.3          4/ 5
15 E BARNEGAT LI 2030               43                N/A           3/ 8
HUDSON CANYON    1950               47              1030.5          3/ 8
KINGS POINT      2036            46 41              1027.9
EXECUTION ROCKS  NOT AVBL
CENTRAL LI SOUND 2030            44     200/ 12/ 14   N/A           1/ 3
EASTERN LI SOUND NOT AVBL
ROBBINS REEF     2036            53     240/ 16/ 19 1028.1
$$


>>>>>>>>>>>>>>>>>>>>>>>>>>>> KEY <<<<<<<<<<<<<<<<<<<<<<<<<<<
>                                                          <
>     SKY/WX - Sky Condition/Present Weather               <
>     TMP    - Temperature in Fahrenheit                   <
>     DP     - Dew Point in Fahrenheit                     <
>     RH     - Relative Humidity in Percent                <
>     WIND   - Direction (from) and Speed in MPH           <
>     PRES   - Mean Sea Level Pressure (inches of Hg)      <
>     WCI    - Wind Chill Index                            <
>     VSB    - VISIBILITY IN MILES                         <
>     HX     - HEAT INDEX                                  <
>     TC     - TEMPERATURE IN CELSIUS                      <
>     VRB    - VARIABLE WIND DIRECTION                     <
>                                                          <
>>>>>>>>>>>>>>>>>>>>>>>>>>>> KEY <<<<<<<<<<<<<<<<<<<<<<<<<<<




USA.gov is the U.S. government's official web portal to all federal, state and local government web resources and services.